STARLINK-1798

Last updated on Tue Nov 24 2020 00:02:03 GMT+0000 (Coordinated Universal Time)

1 46779U 20074AS 20328.58334491 -.00009102 00000-0 -93612-4 0 9997 2 46779 53.0549 13.4297 0001337 64.5614 355.3009 15.62772358 1807
UTC large
Height (km)
Speed (km/s)
/
Latitude / Longitude
Inclination (degrees)
Orbital Period (minutes)
Azimuth
Elevation
Range (km)
Doppler Factor

Next 0 passes for location: London (51.5072 / 0.1276)

Sorry there are no passes over London.